Погода в Усть-Уде

Россия / Иркутская область     54°10′31″N   103°01′58″E
темп.,
°C
ветер,
м/с
пор.,
м/с
влажн.,
%
обл.,
%
осадки,
мм/ч
давл.,
гПа
погр.,
м
18 мая, вт
вт1823:00+5зсз2783100 0.0 1010234
02:00+3з229586 0.0 101133
05:00+1з11945 0.0 101210
08:00+7зюз246270 0.0 1011392
11:00+10з5648100 0.0 10101802
14:00+10зюз466289 0.4 10081379
17:00+11зюз3555100 0.2 10041352
20:00+9ююз1272100 0.4 100168
19 мая, ср
ср1923:00+6всв2594100 2.3 999253
02:00+6ссв4695100 6.0 998813
05:00+5ссз288889 1.4 1003590
08:00+6зсз588177 1.4 1006639
11:00+10ссз343982 0.0 10061772
14:00+14з122876 0.0 10032209
17:00+13ююв1129100 0.0 10022239
20:00+10ююв1151100 0.0 100158
20 мая, чт
чт2023:00+6ссв3772100 0.7 1003337
02:00+4в3785100 1.9 1003592
05:00+4с2687100 0.0 1004490
08:00+7ссв2367100 0.0 1004416
11:00+10всв2348100 0.0 10041372
14:00+12ююв3446100 0.0 10031631
17:00+12ююв3552100 0.0 10011083
20:00+9ююз1275100 0.0 1001171
21 мая, пт
пт2123:00+7сз2293100 1.1 100265
02:00+7св2693100 5.7 1001496
05:00+4св3792100 1.3 1002750
08:00+4ссв4696100 2.4 1002672
11:00+4с2697100 2.2 1005724
14:00+5с3791100 3.1 1005905
17:00+4ссз4995100 2.1 1007795
20:00+5ссз31081100 3.5 10081164
22 мая, сб
сб2223:00+4з2387100 0.3 100994
02:00+4зсз2684100 0.4 1009156
05:00+3сз3780100 0.0 1010177
08:00+5сз41372100 0.0 1011712
11:00+10сз71145100 0.1 10102488
14:00+12ссз61040100 0.2 10092588
17:00+10сз6954100 0.5 10091553
20:00+8сз51068100 0.6 1010986